This is the latest recevied weather packets stored in our database for station/object GBTWP-2. If no packets are shown the sender has not sent any weather packets the latest 10 day(s).
| Time | Temp. | Humidity | Pressure | Rain* | Wind** | Luminosity | Snow |
|---|---|---|---|---|---|---|---|
| 1777990501 | 9.44° C | 72% | 1009 hPa | 0 mm | - | 30 W/m² | - |
| 1777989602 | 9.44° C | 74% | 1008.9 hPa | 0 mm | - | 91 W/m² | - |
| 1777989001 | 8.89° C | 77% | 1009.2 hPa | 0 mm | - | 52 W/m² | - |
| 1777988702 | 8.89° C | 76% | 1009.1 hPa | 0 mm | - | 21 W/m² | - |
| 1777988401 | 8.89° C | 75% | 1008.3 hPa | 0 mm | - | 24 W/m² | - |
| 1777988102 | 8.89° C | 75% | 1008.2 hPa | 0 mm | - | 36 W/m² | - |
| 1777987202 | 9.44° C | 70% | 1008.2 hPa | 0 mm | - | 10 W/m² | - |
| 1777986901 | 9.44° C | 68% | 1007.6 hPa | 0 mm | - | 11 W/m² | - |
| 1777986602 | 9.44° C | 69% | 1007.4 hPa | 0 mm | - | 32 W/m² | - |
| 1777986302 | 9.44° C | 68% | 1007.4 hPa | 0 mm | - | 19 W/m² | - |
| 1777985401 | 9.44° C | 70% | 1007.1 hPa | 0 mm | - | 25 W/m² | - |
| 1777984802 | 10° C | 67% | 1007.2 hPa | 0 mm | - | 23 W/m² | - |
| 1777984502 | 10° C | 67% | 1007 hPa | 0 mm | - | 15 W/m² | - |
| 1777984202 | 10° C | 69% | 1007.1 hPa | 0 mm | - | 17 W/m² | - |
| 1777983901 | 10° C | 67% | 1006.8 hPa | 0 mm | - | 48 W/m² | - |
| 1777983602 | 10° C | 68% | 1007.1 hPa | 0 mm | - | 51 W/m² | - |
| 1777983302 | 10° C | 68% | 1006.8 hPa | 0 mm | - | 44 W/m² | - |
| 1777983001 | 10° C | 72% | 1006.8 hPa | 0 mm | - | 54 W/m² | - |
| 1777982401 | 10° C | 73% | 1007 hPa | 0 mm | - | 37 W/m² | - |
| 1777981802 | 10.56° C | 75% | 1006.4 hPa | 0 mm | - | 47 W/m² | - |
| 1777981501 | 10° C | 75% | 1006.9 hPa | 0 mm | - | 48 W/m² | - |
| 1777981202 | 10° C | 77% | 1006.8 hPa | 0 mm | - | 43 W/m² | - |
| 1777980902 | 10° C | 78% | 1006.7 hPa | 0 mm | - | 32 W/m² | - |
| 1777980602 | 10° C | 78% | 1006.2 hPa | 0 mm | - | 21 W/m² | - |
| 1777980302 | 10° C | 79% | 1006.1 hPa | 0 mm | - | 18 W/m² | - |
* Rain latest hour (hover to see other rain measurements)
** Current wind speed in m/s (hover to see current wind gust speed)